Silver Bay, MN

7:03 PM CDT on June 23, 2017 (GMT -0500)
Silver Bay Municipal

Weather History for KBFW - March, 2012

Change the Weather History Date:

Saturday, March 10, 2012

  Actual Average Record
Temperature  
Mean Temperature 38 °F -  
Max Temperature 55 °F 27 °F 60 °F (2015)
Min Temperature 21 °F 6 °F -9 °F (2008)
Degree Days  
Heating Degree Days 27    
Moisture  
Dew Point 13 °F    
Average Humidity 40    
Maximum Humidity 68    
Minimum Humidity 24    
Precipitation  
Precipitation 0.00 in - - ()
Sea Level Pressure  
Sea Level Pressure 29.84 in    
Wind  
Wind Speed 6 mph (SSW)    
Max Wind Speed 12 mph    
Max Gust Speed -    
Visibility 10 miles    
Events      
Averages and records for this station are not official NWS values.
T = Trace of Precipitation, MM = Missing Value Source: NWS Daily Summary

Daily Weather History Graph

Daily Weather History Graph

Search for Another Location

Airport or City:

Trip Planner

Search our weather history database for the weather conditions in past years. The results will help you decide how hot, cold, wet, or windy it might be!

Date:

Astronomy

Mar. 10, 2012 Rise Set
Actual Time 6:27 AM CST 6:04 PM CST
Civil Twilight 5:57 AM CST 6:35 PM CST
Nautical Twilight 5:21 AM CST 7:10 PM CST
Astronomical Twilight 4:45 AM CST 7:46 PM CST
Moon 9:35 PM CST (3/10) 7:08 AM CST (3/10)
Length of Visible Light 12h 38m
Length of Day
11h 37m
Waning Gibbous, 92% of the Moon is Illuminated
Mar 10
Waning Gibbous
Mar 14
Last Quarter
Mar 22
New
Mar 30
First Quarter
Apr 6
Full

Hourly Weather History & Observations

Time (CST) Temp. Windchill Dew Point Humidity Pressure Visibility Wind Dir Wind Speed Gust Speed Precip Events Conditions
12:14 AM 26.6 °F 16.2 °F 1.4 °F 34% 30.14 in 10.0 mi South 11.5 mph - N/A   Clear
12:54 AM 26.6 °F 19.1 °F 1.4 °F 34% 30.09 in 10.0 mi SSE 6.9 mph - N/A   Clear
1:14 AM 24.8 °F 17.9 °F 3.2 °F 40% 30.08 in 10.0 mi SSE 5.8 mph - N/A   Clear
1:34 AM 24.8 °F 19.1 °F 3.2 °F 40% 30.06 in 10.0 mi SSE 4.6 mph - N/A   Clear
1:54 AM 24.8 °F 17.9 °F 3.2 °F 40% 30.04 in 10.0 mi SSE 5.8 mph - N/A   Clear
2:14 AM 24.8 °F - 3.2 °F 40% 30.03 in 10.0 mi Calm Calm - N/A   Clear
2:34 AM 23.0 °F - 5.0 °F 46% 30.01 in 10.0 mi Calm Calm - N/A   Clear
2:54 AM 21.2 °F - 5.0 °F 50% 29.99 in 10.0 mi Calm Calm - N/A   Clear
3:14 AM 23.0 °F 17.0 °F 6.8 °F 50% 29.96 in 10.0 mi South 4.6 mph - N/A   Clear
3:34 AM 24.8 °F 17.9 °F 6.8 °F 46% 29.94 in 10.0 mi South 5.8 mph - N/A   Clear
3:54 AM 24.8 °F 16.1 °F 8.6 °F 50% 29.93 in 10.0 mi South 8.1 mph - N/A   Clear
4:14 AM 26.6 °F 18.2 °F 8.6 °F 47% 29.91 in 10.0 mi South 8.1 mph - N/A   Clear
4:34 AM 26.6 °F 21.2 °F 8.6 °F 47% 29.90 in 10.0 mi South 4.6 mph - N/A   Clear
4:54 AM 24.8 °F 20.5 °F 10.4 °F 54% 29.88 in 10.0 mi South 3.5 mph - N/A   Clear
5:14 AM 24.8 °F - 10.4 °F 54% 29.88 in 10.0 mi Calm Calm - N/A   Clear
5:34 AM 23.0 °F - 10.4 °F 59% 29.87 in 10.0 mi Calm Calm - N/A   Clear
5:54 AM 23.0 °F - 10.4 °F 59% 29.85 in 10.0 mi Calm Calm - N/A   Clear
6:14 AM 23.0 °F - 10.4 °F 59% 29.84 in 10.0 mi Calm Calm - N/A   Clear
6:34 AM 21.2 °F - 10.4 °F 63% 29.83 in 10.0 mi Calm Calm - N/A   Clear
6:54 AM 21.2 °F - 10.4 °F 63% 29.83 in 10.0 mi Calm Calm - N/A   Clear
7:14 AM 21.2 °F - 10.4 °F 63% 29.83 in 10.0 mi Calm Calm - N/A   Clear
7:34 AM 21.2 °F - 12.2 °F 68% 29.83 in 10.0 mi Calm Calm - N/A   Clear
7:54 AM 23.0 °F - 10.4 °F 59% 29.82 in 10.0 mi Calm Calm - N/A   Clear
8:14 AM 26.6 °F - 12.2 °F 55% 29.81 in 10.0 mi Calm Calm - N/A   Clear
8:34 AM 33.8 °F - 14.0 °F 44% 29.80 in 10.0 mi Calm Calm - N/A   Clear
8:54 AM 37.4 °F 34.9 °F 15.8 °F 41% 29.80 in 10.0 mi SW 3.5 mph - N/A   Clear
9:14 AM 37.4 °F 34.9 °F 15.8 °F 41% 29.79 in 10.0 mi SW 3.5 mph - N/A   Clear
9:34 AM 39.2 °F 35.9 °F 15.8 °F 39% 29.78 in 10.0 mi SW 4.6 mph - N/A   Clear
9:54 AM 39.2 °F 33.6 °F 15.8 °F 39% 29.78 in 10.0 mi SW 8.1 mph - N/A   Clear
10:14 AM 41.0 °F 36.4 °F 17.6 °F 39% 29.78 in 10.0 mi SW 6.9 mph - N/A   Clear
10:34 AM 42.8 °F 38.0 °F 15.8 °F 34% 29.77 in 10.0 mi SSW 8.1 mph - N/A   Clear
10:54 AM 44.6 °F 40.7 °F 15.8 °F 31% 29.76 in 10.0 mi SW 6.9 mph - N/A   Clear
11:14 AM 46.4 °F 42.4 °F 15.8 °F 29% 29.76 in 10.0 mi SW 8.1 mph - N/A   Clear
11:34 AM 46.4 °F 42.4 °F 17.6 °F 32% 29.76 in 10.0 mi SW 8.1 mph - N/A   Clear
11:54 AM 48.2 °F - 17.6 °F 30% 29.75 in 10.0 mi SSW 10.4 mph - N/A   Clear
12:14 PM 48.2 °F - 17.6 °F 30% 29.76 in 10.0 mi SW 6.9 mph - N/A   Clear
12:34 PM 51.8 °F - 17.6 °F 26% 29.76 in 10.0 mi Calm Calm - N/A   Clear
12:54 PM 53.6 °F - 17.6 °F 24% 29.76 in 10.0 mi South 4.6 mph - N/A   Clear
1:14 PM 53.6 °F - 17.6 °F 24% 29.76 in 10.0 mi South 5.8 mph - N/A   Clear
1:34 PM 55.4 °F - 19.4 °F 25% 29.75 in 10.0 mi South 5.8 mph - N/A   Clear
1:54 PM 55.4 °F - 19.4 °F 25% 29.75 in 10.0 mi SSW 5.8 mph - N/A   Clear
2:14 PM 55.4 °F - 19.4 °F 25% 29.75 in 10.0 mi South 9.2 mph - N/A   Clear
2:34 PM 53.6 °F - 19.4 °F 26% 29.76 in 10.0 mi South 10.4 mph - N/A   Clear
2:54 PM 53.6 °F - 19.4 °F 26% 29.76 in 10.0 mi SSW 9.2 mph - N/A   Clear
3:14 PM 55.4 °F - 19.4 °F 25% 29.76 in 10.0 mi SSW 8.1 mph - N/A   Clear
3:34 PM 55.4 °F - 19.4 °F 25% 29.76 in 10.0 mi SSW 10.4 mph - N/A   Clear
3:54 PM 55.4 °F - 19.4 °F 25% 29.77 in 10.0 mi SW 9.2 mph - N/A   Clear
4:14 PM 53.6 °F - 19.4 °F 26% 29.77 in 10.0 mi SW 9.2 mph - N/A   Clear
4:34 PM 53.6 °F - 19.4 °F 26% 29.77 in 10.0 mi SSW 10.4 mph - N/A   Clear
4:54 PM 51.8 °F - 19.4 °F 28% 29.78 in 10.0 mi SSW 9.2 mph - N/A   Clear
5:14 PM 50.0 °F - 19.4 °F 30% 29.78 in 10.0 mi SSW 10.4 mph - N/A   Clear
5:34 PM 48.2 °F - 21.2 °F 34% 29.79 in 10.0 mi SW 10.4 mph - N/A   Clear
5:54 PM 46.4 °F 42.4 °F 21.2 °F 37% 29.79 in 10.0 mi SW 8.1 mph - N/A   Clear
6:14 PM 44.6 °F 41.4 °F 21.2 °F 39% 29.80 in 10.0 mi SW 5.8 mph - N/A   Clear
6:34 PM 44.6 °F 42.2 °F 21.2 °F 39% 29.80 in 10.0 mi SW 4.6 mph - N/A   Clear
6:54 PM 42.8 °F 40.1 °F 21.2 °F 42% 29.80 in 10.0 mi WSW 4.6 mph - N/A   Clear
7:14 PM 42.8 °F 40.1 °F 21.2 °F 42% 29.81 in 10.0 mi WSW 4.6 mph - N/A   Clear
7:34 PM 42.8 °F 40.1 °F 21.2 °F 42% 29.81 in 10.0 mi WSW 4.6 mph - N/A   Clear
7:54 PM 42.8 °F 39.3 °F 21.2 °F 42% 29.81 in 10.0 mi WSW 5.8 mph - N/A   Clear
8:14 PM 42.8 °F 41.1 °F 21.2 °F 42% 29.81 in 10.0 mi West 3.5 mph - N/A   Clear
8:34 PM 41.0 °F - 21.2 °F 45% 29.82 in 10.0 mi Calm Calm - N/A   Clear
8:54 PM 39.2 °F 37.0 °F 21.2 °F 49% 29.82 in 10.0 mi West 3.5 mph - N/A   Clear
9:14 PM 39.2 °F 37.0 °F 21.2 °F 49% 29.82 in 10.0 mi West 3.5 mph - N/A   Clear
9:34 PM 37.4 °F - 21.2 °F 52% 29.82 in 10.0 mi Calm Calm - N/A   Clear
9:54 PM 35.6 °F - 21.2 °F 56% 29.82 in 10.0 mi Calm Calm - N/A   Clear
10:14 PM 33.8 °F - 21.2 °F 60% 29.83 in 10.0 mi Calm Calm - N/A   Clear
10:34 PM 33.8 °F - 23.0 °F 65% 29.83 in 10.0 mi Calm Calm - N/A   Clear
10:54 PM 33.8 °F 30.8 °F 21.2 °F 60% 29.84 in 10.0 mi West 3.5 mph - N/A   Clear
11:14 PM 33.8 °F - 23.0 °F 65% 29.85 in 10.0 mi Calm Calm - N/A   Clear
11:34 PM 30.2 °F - 21.2 °F 69% 29.84 in 10.0 mi Calm Calm - N/A   Clear
11:54 PM 28.4 °F - 21.2 °F 74% 29.84 in 10.0 mi Calm Calm - N/A   Clear